TimeCST,TemperatureF,Dew PointF,Humidity,Sea Level PressureIn,VisibilityMPH,Wind Direction,Wind SpeedMPH,Gust SpeedMPH,PrecipitationIn,Events,Conditions,WindDirDegrees,DateUTC
12:15 AM,12.2,3.2,67,30.31,10.0,SSW,3.5,-,N/A,,Overcast,210,2014-02-04 06:15:00
12:35 AM,12.2,3.2,67,30.32,10.0,South,3.5,-,N/A,,Scattered Clouds,180,2014-02-04 06:35:00
12:55 AM,12.2,3.2,67,30.32,10.0,South,3.5,-,N/A,,Mostly Cloudy,180,2014-02-04 06:55:00
1:15 AM,12.2,3.2,67,30.32,10.0,Calm,Calm,-,N/A,,Overcast,0,2014-02-04 07:15:00
1:35 AM,12.2,3.2,67,30.33,10.0,Calm,Calm,-,N/A,,Scattered Clouds,0,2014-02-04 07:35:00
1:55 AM,12.2,3.2,67,30.32,10.0,Calm,Calm,-,N/A,,Scattered Clouds,0,2014-02-04 07:55:00
2:15 AM,12.2,3.2,67,30.32,10.0,Calm,Calm,-,N/A,,Scattered Clouds,0,2014-02-04 08:15:00
2:35 AM,12.2,3.2,67,30.32,10.0,Calm,Calm,-,N/A,,Clear,0,2014-02-04 08:35:00
2:55 AM,10.4,1.4,67,30.31,10.0,North,4.6,-,N/A,,Clear,350,2014-02-04 08:55:00
3:15 AM,10.4,1.4,67,30.31,10.0,North,4.6,-,N/A,,Clear,350,2014-02-04 09:15:00
3:35 AM,10.4,3.2,73,30.32,10.0,Calm,Calm,-,N/A,,Clear,0,2014-02-04 09:35:00
3:55 AM,10.4,3.2,73,30.33,10.0,Calm,Calm,-,N/A,,Clear,0,2014-02-04 09:55:00
4:15 AM,12.2,3.2,67,30.33,10.0,Calm,Calm,-,N/A,,Clear,0,2014-02-04 10:15:00
4:35 AM,12.2,3.2,67,30.33,10.0,Calm,Calm,-,N/A,,Clear,0,2014-02-04 10:35:00
4:55 AM,12.2,3.2,67,30.33,10.0,Calm,Calm,-,N/A,,Scattered Clouds,0,2014-02-04 10:55:00
5:15 AM,12.2,3.2,67,30.33,10.0,Calm,Calm,-,N/A,,Clear,0,2014-02-04 11:15:00
5:35 AM,10.4,3.2,73,30.33,10.0,SE,3.5,-,N/A,,Clear,130,2014-02-04 11:35:00
5:55 AM,10.4,3.2,73,30.33,10.0,Calm,Calm,-,N/A,,Clear,0,2014-02-04 11:55:00
6:15 AM,10.4,3.2,73,30.33,10.0,Calm,Calm,-,N/A,,Clear,0,2014-02-04 12:15:00
6:35 AM,10.4,3.2,73,30.34,10.0,Calm,Calm,-,N/A,,Clear,0,2014-02-04 12:35:00
6:55 AM,8.6,3.2,79,30.34,10.0,Calm,Calm,-,N/A,,Scattered Clouds,0,2014-02-04 12:55:00
7:15 AM,10.4,3.2,73,30.34,10.0,Calm,Calm,-,N/A,,Mostly Cloudy,0,2014-02-04 13:15:00
7:35 AM,8.6,1.4,73,30.34,10.0,Calm,Calm,-,N/A,,Overcast,0,2014-02-04 13:35:00
7:55 AM,10.4,5.0,79,30.36,10.0,Calm,Calm,-,N/A,,Overcast,0,2014-02-04 13:55:00
8:15 AM,12.2,5.0,73,30.36,10.0,Calm,Calm,-,N/A,,Overcast,0,2014-02-04 14:15:00
8:35 AM,12.2,5.0,73,30.37,10.0,Calm,Calm,-,N/A,,Overcast,0,2014-02-04 14:35:00
8:55 AM,14.0,6.8,73,30.35,10.0,NNE,3.5,-,N/A,,Overcast,30,2014-02-04 14:55:00
9:15 AM,14.0,6.8,73,30.35,10.0,NNE,4.6,-,N/A,,Mostly Cloudy,30,2014-02-04 15:15:00
9:35 AM,15.8,8.6,73,30.36,10.0,East,3.5,-,N/A,,Scattered Clouds,80,2014-02-04 15:35:00
9:55 AM,17.6,8.6,68,30.34,10.0,ENE,6.9,-,N/A,,Scattered Clouds,60,2014-02-04 15:55:00
10:15 AM,17.6,8.6,68,30.34,10.0,ENE,6.9,-,N/A,,Mostly Cloudy,70,2014-02-04 16:15:00
10:35 AM,17.6,6.8,63,30.33,10.0,ENE,6.9,-,N/A,,Scattered Clouds,60,2014-02-04 16:35:00
10:55 AM,17.6,6.8,63,30.33,10.0,ENE,6.9,-,N/A,,Clear,60,2014-02-04 16:55:00
11:15 AM,17.6,6.8,63,30.34,10.0,NE,6.9,-,N/A,,Clear,50,2014-02-04 17:15:00
11:35 AM,17.6,6.8,63,30.33,10.0,NE,5.8,-,N/A,,Clear,50,2014-02-04 17:35:00
11:55 AM,17.6,6.8,63,30.31,10.0,NE,6.9,-,N/A,,Clear,50,2014-02-04 17:55:00
12:15 PM,17.6,6.8,63,30.30,10.0,NE,6.9,-,N/A,,Clear,50,2014-02-04 18:15:00
12:35 PM,19.4,6.8,58,30.29,10.0,NE,5.8,-,N/A,,Clear,40,2014-02-04 18:35:00
12:55 PM,19.4,6.8,58,30.29,10.0,NE,5.8,-,N/A,,Mostly Cloudy,50,2014-02-04 18:55:00
1:15 PM,19.4,8.6,63,30.27,10.0,ENE,4.6,-,N/A,,Overcast,60,2014-02-04 19:15:00
1:35 PM,19.4,6.8,58,30.26,10.0,NNE,5.8,-,N/A,,Overcast,30,2014-02-04 19:35:00
1:55 PM,19.4,6.8,58,30.26,10.0,NNE,6.9,-,N/A,,Overcast,20,2014-02-04 19:55:00
2:15 PM,19.4,6.8,58,30.29,10.0,NNE,5.8,-,N/A,,Overcast,20,2014-02-04 20:15:00
2:35 PM,19.4,6.8,58,30.27,10.0,NNE,4.6,-,N/A,,Overcast,30,2014-02-04 20:35:00
2:55 PM,19.4,6.8,58,30.27,10.0,NE,6.9,-,N/A,,Overcast,50,2014-02-04 20:55:00
3:15 PM,19.4,8.6,63,30.26,10.0,NNE,5.8,-,N/A,,Overcast,20,2014-02-04 21:15:00
3:35 PM,19.4,8.6,63,30.23,10.0,NNE,8.1,-,N/A,,Scattered Clouds,20,2014-02-04 21:35:00
3:55 PM,19.4,8.6,63,30.23,10.0,NNE,5.8,-,N/A,,Mostly Cloudy,20,2014-02-04 21:55:00
4:15 PM,19.4,8.6,63,30.25,10.0,NE,5.8,-,N/A,,Overcast,50,2014-02-04 22:15:00
4:35 PM,19.4,6.8,58,30.26,10.0,NE,8.1,-,N/A,,Overcast,50,2014-02-04 22:35:00
4:55 PM,19.4,6.8,58,30.21,10.0,NNE,10.4,-,N/A,,Overcast,30,2014-02-04 22:55:00
5:15 PM,19.4,8.6,63,30.23,10.0,NNE,8.1,-,N/A,,Overcast,20,2014-02-04 23:15:00
5:35 PM,19.4,8.6,63,30.23,10.0,NNE,8.1,-,N/A,,Overcast,20,2014-02-04 23:35:00
5:55 PM,19.4,8.6,63,30.23,10.0,NNE,8.1,-,N/A,,Overcast,30,2014-02-04 23:55:00
6:15 PM,19.4,8.6,63,30.23,10.0,NNE,8.1,-,N/A,,Overcast,20,2014-02-05 00:15:00
6:35 PM,19.4,8.6,63,30.23,10.0,North,9.2,-,N/A,,Overcast,10,2014-02-05 00:35:00
6:55 PM,19.4,8.6,63,30.23,10.0,NNE,9.2,-,N/A,,Overcast,30,2014-02-05 00:55:00
7:15 PM,19.4,8.6,63,30.22,10.0,NNE,9.2,-,N/A,,Overcast,20,2014-02-05 01:15:00
7:35 PM,19.4,8.6,63,30.21,10.0,NNE,10.4,-,N/A,,Overcast,30,2014-02-05 01:35:00
7:55 PM,19.4,8.6,63,30.20,10.0,NNE,11.5,-,N/A,,Overcast,30,2014-02-05 01:55:00
8:15 PM,19.4,10.4,68,30.20,10.0,NNE,12.7,16.1,N/A,,Overcast,20,2014-02-05 02:15:00
8:35 PM,19.4,10.4,68,30.19,10.0,NNE,12.7,17.3,N/A,,Overcast,20,2014-02-05 02:35:00
8:55 PM,19.4,10.4,68,30.20,10.0,NNE,9.2,-,N/A,,Overcast,20,2014-02-05 02:55:00
9:15 PM,19.4,10.4,68,30.18,10.0,NNE,12.7,20.7,N/A,,Overcast,20,2014-02-05 03:15:00
9:35 PM,19.4,10.4,68,30.18,10.0,NNE,12.7,-,N/A,,Overcast,20,2014-02-05 03:35:00
9:55 PM,19.4,10.4,68,30.19,10.0,NNE,10.4,13.8,N/A,,Overcast,20,2014-02-05 03:55:00
10:15 PM,19.4,10.4,68,30.19,10.0,North,12.7,-,N/A,,Overcast,10,2014-02-05 04:15:00
10:35 PM,19.4,10.4,68,30.18,10.0,North,12.7,-,N/A,,Overcast,10,2014-02-05 04:35:00
10:55 PM,19.4,10.4,68,30.17,10.0,North,17.3,-,N/A,,Overcast,360,2014-02-05 04:55:00
11:15 PM,17.6,12.2,79,30.17,2.0,North,15.0,-,N/A,Snow,Light Snow,10,2014-02-05 05:15:00
11:35 PM,17.6,12.2,79,30.18,1.8,North,15.0,-,N/A,Snow,Light Snow,10,2014-02-05 05:35:00
11:55 PM,17.6,12.2,79,30.17,1.5,North,13.8,-,N/A,Snow,Light Snow,10,2014-02-05 05:55:00